sat.trackr.live / text

‹ back to catalog

QIANFAN-7

NORAD 60385 · 2024-140G

PAYLOAD ACTIVE UNKNOWN

§ Identity

Operator
Country
PRC
Launch date
2024-08-06
Launch site
TAISC
Launch vehicle
Mass (kg)
RCS (m²)

External: N2YO · Heavens-Above · Gunter

§ Orbital elements

Epoch: 2026-09-22T22:18:32.892768Z

Period
100.85 min
Inclination
88.9723°
Eccentricity
0.0014918
Mean motion
14.27894208 rev/d
Perigee alt
788.1 km
Apogee alt
809.5 km
Semi-major
7,176.9 km
B*
5.0882e-5
RAAN
260.2661°
Arg perigee
175.7079°
Mean anomaly
184.4247°
Rev number
11,094

§ Raw data

QIANFAN-71 60385U 24140G   26265.92954737  .00000141  00000+0  50882-4 0  99922 60385  88.9723 260.2661 0014918 175.7079 184.4247 14.27894208110943

JSON: /api/v1/satellites/60385 · /tle

For live sub-satellite position, see the globe view (requires WebGL).

§ Visibility from observer

Set your observer location to see the next 7 days of passes ≥ 10°. The values pass through the URL so the page stays shareable.

No JS? Fill the form by hand. The geolocation button needs JavaScript.